Weather History for Benson, United Kingdom

Change the Weather History Date:

Monday, March 4, 2013

  Actual Average Record
Temperature  
Mean Temperature 41 °F -  
Max Temperature 51 °F 50 °F 57 °F (2003)
Min Temperature 31 °F 35 °F 15 °F (2006)
Degree Days  
Heating Degree Days 24    
Moisture  
Dew Point 32 °F    
Average Humidity 74    
Maximum Humidity 93    
Minimum Humidity 33    
Precipitation  
Precipitation 0.00 in - - ()
Sea Level Pressure  
Sea Level Pressure 29.89 in    
Wind  
Wind Speed 6 mph ()    
Max Wind Speed 12 mph    
Max Gust Speed -    
Visibility 4.0 miles    
Events      
Averages and records for this station are not official NWS values.
T = Trace of Precipitation, MM = Missing Value Source: Averaged Metar Reports

Daily Weather History Graph

Daily Weather History Graph

Search for Another Location

Airport:

Trip Planner

Search our weather history database for the weather conditions in past years. The results will help you decide how hot, cold, wet, or windy it might be!

Date:

Astronomy

Mar. 04, 2013 Rise Set
Actual Time 6:42 AM GMT 5:50 PM GMT
Civil Twilight 6:09 AM GMT 6:23 PM GMT
Nautical Twilight 5:30 AM GMT 7:02 PM GMT
Astronomical Twilight 4:51 AM GMT 7:41 PM GMT
Moon 1:05 AM GMT (3/4) 9:48 AM GMT (3/4)
Length of Visible Light 12h 14m
Length of Day
11h 07m
Waning Gibbous, 55% of the Moon is Illuminated
Mar 4
Waning Gibbous
Mar 4
Last Quarter
Mar 11
New
Mar 19
First Quarter
Mar 27
Full

Hourly Weather History & Observations

Time (GMT) Temp. Windchill Dew Point Humidity Pressure Visibility Wind Dir Wind Speed Gust Speed Precip Events Conditions
12:50 AM 35.6 °F 31.7 °F 32.0 °F 87% 30.09 in 5.0 mi ESE 4.6 mph - N/A   Mostly Cloudy
1:50 AM 37.4 °F 33.8 °F 33.8 °F 87% 30.06 in 4.3 mi ESE 4.6 mph - N/A   Overcast
2:50 AM 37 °F - 33 °F 79% 30.07 in 3 mi East 6.9 mph - -   Overcast
2:50 AM 37.4 °F 32.1 °F 32.0 °F 81% 30.04 in 3.1 mi East 6.9 mph - N/A   Overcast
3:50 AM 33.8 °F 27.7 °F 32.0 °F 93% 30.04 in 3.1 mi East 6.9 mph - N/A   Partly Cloudy
4:50 AM 32.0 °F 25.6 °F 30.2 °F 93% 30.01 in - ENE 6.9 mph - N/A   Unknown
5:50 AM 31 °F - 29 °F 89% 30.02 in 3 mi ENE 4.6 mph - -  
5:50 AM 32.0 °F 27.5 °F 28.4 °F 87% 30.01 in - ENE 4.6 mph - N/A   Unknown
6:50 AM 32.0 °F 24.2 °F 30.2 °F 93% 29.98 in 2.5 mi East 9.2 mph - N/A   Haze
7:50 AM 35.6 °F 29.9 °F 32.0 °F 87% 29.98 in 3.1 mi ENE 6.9 mph - N/A   Haze
8:50 AM 38 °F - 33 °F 75% 30.00 in 4 mi ENE 8.1 mph - -   Haze
8:50 AM 37.4 °F 31.4 °F 33.8 °F 87% 29.98 in 3.7 mi ENE 8.1 mph - N/A   Haze
9:50 AM 41.0 °F 35.2 °F 33.8 °F 76% 29.95 in 3.7 mi East 9.2 mph - N/A   Haze
10:50 AM 42.8 °F 38.0 °F 33.8 °F 70% 29.95 in 4.3 mi ENE 8.1 mph - N/A   Haze
11:50 AM 45 °F - 33 °F 51% 29.94 in 4 mi ENE 5.8 mph - -   Haze
11:50 AM 44.6 °F 41.4 °F 32.0 °F 61% 29.92 in 4.3 mi ENE 5.8 mph - N/A   Haze
12:50 PM 48.2 °F - 33.8 °F 58% 29.89 in 5.0 mi ENE 6.9 mph - N/A   Haze
1:50 PM 50.0 °F - 32.0 °F 50% 29.83 in - East 10.4 mph - N/A   Clear
2:50 PM 51 °F - 31 °F 33% 29.83 in 7 mi East 11.5 mph - -   Clear
2:50 PM 50.0 °F - 30.2 °F 47% 29.80 in - East 11.5 mph - N/A   Clear
3:50 PM 51.8 °F - 30.2 °F 44% 29.80 in - East 11.5 mph - N/A   Clear
4:50 PM 46.4 °F 42.9 °F 30.2 °F 53% 29.77 in - East 6.9 mph - N/A   Clear
5:50 PM 41 °F - 30 °F 55% 29.80 in 7 mi East 8.1 mph - -   Clear
5:50 PM 41.0 °F 35.8 °F 30.2 °F 65% 29.77 in - East 8.1 mph - N/A   Clear
6:50 PM 41.0 °F 34.7 °F 32.0 °F 70% 29.77 in - East 10.4 mph - N/A   Clear
7:50 PM 37.4 °F 31.4 °F 32.0 °F 81% 29.77 in 5.0 mi East 8.1 mph - N/A   Haze
8:50 PM 35 °F - 32 °F 83% 29.79 in 4 mi East 2.3 mph - -   Haze
8:50 PM 35.6 °F - 32.0 °F 87% 29.77 in 4.3 mi East 2.3 mph - N/A   Haze
9:50 PM 35.6 °F - 32.0 °F 87% 29.77 in 3.7 mi NNW 2.3 mph - N/A   Haze
10:50 PM 35.6 °F - 32.0 °F 87% 29.74 in 3.1 mi NNE 1.2 mph - N/A   Haze
11:50 PM 32 °F - 29 °F 86% 29.75 in 3 mi West 2.3 mph - -   Haze
11:50 PM 32.0 °F - 30.2 °F 93% 29.74 in 2.8 mi West 2.3 mph - N/A   Haze